sat.trackr.live / text

‹ back to catalog

STARLINK-37487

NORAD 69840 · 2026-154X

PAYLOAD ACTIVE UNKNOWN

§ Identity

Operator
Country
US
Launch date
2026-07-05
Launch site
AFETR
Launch vehicle
Mass (kg)
RCS (m²)

Purposes: comms

External: N2YO · Heavens-Above · Gunter

§ Orbital elements

Epoch: 2026-09-20T04:32:24.592128Z

Period
93.85 min
Inclination
53.1530°
Eccentricity
0.0001752
Mean motion
15.34399637 rev/d
Perigee alt
461.5 km
Apogee alt
463.9 km
Semi-major
6,840.8 km
B*
4.7869e-4
RAAN
332.9115°
Arg perigee
75.6391°
Mean anomaly
284.4806°
Rev number
1,319

§ Raw data

STARLINK-374871 69840U 26154X   26263.18917352  .00015831  00000+0  47869-3 0  99942 69840  53.1530 332.9115 0001752  75.6391 284.4806 15.34399637 13192

JSON: /api/v1/satellites/69840 · /tle

For live sub-satellite position, see the globe view (requires WebGL).

§ Visibility from observer

Set your observer location to see the next 7 days of passes ≥ 10°. The values pass through the URL so the page stays shareable.

No JS? Fill the form by hand. The geolocation button needs JavaScript.